1501376400.76,58304,19.75,74464.8,7.39,-22.21,-22.53,0,*7F
1501376401.99,58305,19.75,74468.5,7.37,-22.63,-22.77,0,*70
1501376403.23,58306,19.75,74470.8,7.39,-22.41,-22.73,0,*79
1501376404.48,58307,19.75,74470.3,7.39,-22.31,-22.57,0,*79
1501376405.74,58308,19.75,74468.5,7.37,-22.47,-22.77,0,*7B
1501376406.97,58309,19.75,74466.3,7.39,-22.57,-22.97,0,*7B
1501376408.21,58310,19.75,74466.8,7.37,-23.03,-23.09,0,*7B
1501376409.42,58311,19.75,74468.8,7.37,-22.93,-23.09,0,*72
1501376410.67,58312,19.75,74468.3,7.39,-23.09,-23.29,0,*7F
1501376411.95,58313,19.75,74466.0,7.39,-23.03,-23.19,0,*77
1501376413.17,58314,19.75,74470.8,7.37,-23.19,-23.39,0,*77
1501376414.42,58315,19.75,74470.0,7.37,-23.33,-23.69,0,*7B
1501376415.67,58316,19.75,74468.3,7.37,-23.33,-23.69,0,*78
1501376416.91,58317,19.69,74464.0,7.35,-23.33,-23.59,0,*78
1501376418.17,58318,19.75,74468.8,7.35,-23.09,-23.19,0,*7A
1501376419.45,58319,19.75,74464.5,7.35,-22.47,-22.73,0,*7D
1501376420.69,58320,19.75,74468.5,7.35,-22.63,-22.77,0,*75
1501376421.92,58321,19.75,74468.0,7.35,-22.87,-22.87,0,*71
1501376423.2,58322,19.75,74466.0,7.35,-23.03,-23.23,0,*70
1501376424.42,58323,19.75,74464.5,7.35,-22.87,-22.93,0,*76
1501376425.68,58324,19.75,74470.8,7.35,-22.57,-22.77,0,*76
1501376426.93,58325,19.75,74470.3,7.35,-22.63,-22.77,0,*70
1501376428.17,58326,19.75,74464.0,7.35,-22.63,-22.77,0,*73
1501376429.39,58327,19.75,74466.5,7.35,-22.63,-22.87,0,*7D
1501376430.67,58328,19.75,74462.5,7.35,-22.73,-23.03,0,*7E
1501376431.9,58329,19.75,74464.3,7.35,-22.93,-23.09,0,*7B
1501376433.18,58330,19.75,74466.0,7.35,-23.03,-23.19,0,*7A
1501376434.43,58331,19.75,74466.3,7.35,-23.19,-23.39,0,*72
1501376435.68,58332,19.75,74460.8,7.35,-23.19,-23.59,0,*77
1501376436.93,58333,19.75,74464.5,7.35,-23.19,-23.39,0,*70
1501376438.18,58334,19.75,74464.5,7.33,-23.29,-23.49,0,*75
1501376439.43,58335,19.75,74464.8,7.33,-23.29,-23.49,0,*74
1501376440.68,58336,19.75,74462.3,7.33,-23.29,-23.49,0,*77
1501376441.9,58337,19.75,74466.3,7.33,-23.39,-23.65,0,*79
1501376443.13,58338,19.75,74464.8,7.33,-23.43,-23.65,0,*7B
1501376444.36,58339,19.75,74466.0,7.33,-23.29,-23.43,0,*72
1501376445.61,58340,19.75,74466.5,7.31,-23.33,-23.43,0,*75
1501376446.87,58341,19.75,74468.5,7.31,-23.19,-23.43,0,*7C
1501376448.11,58342,19.75,74464.3,7.31,-23.13,-23.29,0,*79
1501376449.38,58343,19.75,74466.5,7.31,-23.19,-23.33,0,*79
1501376450.65,58344,19.75,74466.5,7.31,-23.29,-23.53,0,*7B
1501376451.88,58345,19.75,74464.3,7.31,-23.43,-23.79,0,*7E
1501376453.14,58346,19.75,74470.0,7.29,-23.53,-23.85,0,*76
1501376454.36,58347,19.75,74466.0,7.29,-23.49,-23.79,0,*7F
1501376455.61,58348,19.75,74470.0,7.29,-23.33,-23.53,0,*75
1501376456.86,58349,19.75,74464.3,7.31,-23.43,-23.53,0,*7A
1501376458.11,58350,19.75,74466.8,7.31,-23.43,-23.69,0,*7B
1501376459.33,58351,19.75,74468.0,7.29,-23.43,-23.53,0,*7A
1501376460.58,58352,19.75,74466.0,7.29,-23.33,-23.53,0,*7E
1501376461.85,58353,19.75,74466.8,7.27,-23.33,-23.53,0,*71
1501376463.1,58354,19.75,74464.8,7.27,-23.33,-23.59,0,*7C
1501376464.35,58355,19.75,74462.0,7.29,-23.33,-23.69,0,*70
1501376465.57,58356,19.75,74462.0,7.27,-23.39,-23.59,0,*74
1501376466.78,58357,19.75,74464.5,7.25,-23.39,-23.53,0,*7D
1501376468.0,58358,19.75,74466.5,7.27,-23.39,-23.59,0,*7A
1501376469.21,58359,19.75,74468.8,7.27,-23.39,-23.59,0,*7B
1501376470.49,58360,19.75,74470.3,7.27,-23.49,-23.85,0,*77
1501376471.74,58361,19.75,74466.8,7.27,-23.49,-23.75,0,*79
1501376472.96,58362,19.75,74468.0,7.25,-23.23,-23.39,0,*7C
1501376474.19,58363,19.75,74468.3,7.25,-23.09,-23.33,0,*7F
1501376475.43,58364,19.75,74470.8,7.25,-23.33,-23.53,0,*77
1501376476.68,58365,19.75,74470.5,7.25,-23.33,-23.49,0,*7D
1501376477.93,58366,19.75,74468.5,7.25,-23.33,-23.49,0,*7E
1501376479.16,58367,19.75,74464.8,7.25,-23.09,-23.19,0,*73
1501376480.39,58368,19.75,74466.8,7.25,-23.03,-23.09,0,*77
1501376481.64,58369,19.75,74466.8,7.25,-23.23,-23.33,0,*7D
1501376482.89,58370,19.75,74468.5,7.25,-23.23,-23.49,0,*78
1501376484.09,58371,19.75,74470.8,7.21,-23.39,-23.43,0,*7C
1501376485.31,58372,19.75,74468.3,7.21,-23.13,-23.29,0,*7B
1501376486.54,58373,19.75,74470.8,7.21,-23.13,-23.29,0,*7A
1501376487.78,58374,19.75,74470.0,7.19,-23.13,-23.33,0,*7D
1501376488.99,58375,19.75,74470.5,7.21,-22.97,-23.13,0,*78
1501376490.2,58376,19.75,74468.5,7.21,-22.97,-23.09,0,*70
1501376491.4,58377,19.75,74468.8,7.21,-22.63,-22.67,0,*73
1501376492.61,58378,19.75,74466.8,7.21,-22.57,-22.67,0,*7B
1501376493.83,58379,19.75,74470.3,7.21,-22.63,-22.77,0,*7C
1501376495.06,58380,19.75,74468.3,7.21,-22.47,-22.63,0,*79
1501376496.29,58381,19.75,74466.5,7.21,-22.63,-22.77,0,*7B
1501376497.49,58382,19.75,74470.0,7.25,-22.67,-22.93,0,*72
1501376498.7,58383,19.75,74470.3,7.25,-22.53,-22.57,0,*7C
1501376499.92,58384,19.75,74468.8,7.25,-22.63,-22.77,0,*7A
1501376501.17,58385,19.75,74468.5,7.25,-22.77,-23.03,0,*7C
1501376502.37,58386,19.75,74468.3,7.25,-22.87,-23.09,0,*7A
1501376503.59,58387,19.75,74466.8,7.25,-22.73,-22.87,0,*77
1501376504.79,58388,19.75,74470.5,7.25,-22.27,-22.41,0,*73
1501376505.98,58389,19.75,74466.3,7.25,-22.37,-22.41,0,*73
1501376507.23,58390,19.75,74468.3,7.27,-22.21,-22.27,0,*7E
1501376508.45,58391,19.75,74468.5,7.27,-22.37,-22.41,0,*78
1501376509.68,58392,19.75,74470.5,7.27,-22.41,-22.57,0,*7D
1501376510.92,58393,19.75,74468.8,7.27,-22.21,-22.41,0,*7D
1501376512.18,58394,19.75,74470.5,7.29,-22.21,-22.31,0,*73
1501376513.41,58395,19.75,74468.3,7.29,-22.21,-22.37,0,*74
1501376514.63,58396,19.75,74468.3,7.29,-22.17,-22.37,0,*72
1501376515.9,58397,19.75,74468.3,7.29,-22.17,-22.17,0,*71
1501376517.16,58398,19.75,74466.8,7.29,-22.17,-22.31,0,*7A
1501376518.38,58399,19.75,74466.5,7.29,-22.07,-22.17,0,*7E
1501376519.61,58400,19.75,74464.5,7.29,-22.03,-22.17,0,*7D
1501376520.84,58401,19.75,74464.3,7.29,-22.03,-22.17,0,*7C
1501376522.08,58402,19.75,74470.5,7.31,-22.07,-22.17,0,*72
1501376523.36,58403,19.75,74466.8,7.31,-22.17,-22.31,0,*76
1501376524.62,58404,19.75,74470.3,7.33,-21.97,-22.17,0,*7C
1501376525.82,58405,19.75,74464.5,7.33,-22.11,-22.27,0,*73
1501376527.05,58406,19.75,74466.5,7.33,-22.11,-22.31,0,*77
1501376528.28,58407,19.75,74468.8,7.33,-21.87,-22.03,0,*7B
1501376529.53,58408,19.75,74470.3,7.35,-21.97,-22.11,0,*70
1501376530.75,58409,19.75,74468.3,7.35,-22.07,-22.27,0,*7E
1501376531.94,58410,19.75,74470.5,7.33,-22.27,-22.41,0,*72
1501376533.17,58411,19.75,74472.3,7.35,-22.11,-22.27,0,*70
1501376534.39,58412,19.75,74470.5,7.35,-22.11,-22.27,0,*73
1501376535.63,58413,19.75,74472.3,7.37,-22.27,-22.47,0,*73
1501376536.85,58414,19.75,74470.0,7.37,-22.37,-22.73,0,*72
1501376538.05,58415,19.75,74464.0,7.37,-22.27,-22.57,0,*74
1501376539.26,58416,19.75,74466.0,7.37,-22.37,-22.57,0,*76
1501376540.48,58417,19.75,74466.3,7.37,-22.41,-22.73,0,*70
1501376541.68,58418,19.75,74464.5,7.37,-22.63,-22.87,0,*74
1501376542.9,58419,19.75,74466.0,7.37,-22.87,-23.03,0,*72
1501376544.14,58420,19.75,74464.5,7.37,-22.77,-22.93,0,*7F
1501376545.39,58421,19.75,74468.3,7.35,-22.21,-22.37,0,*71
1501376546.64,58422,19.75,74466.0,7.35,-22.21,-22.37,0,*72
1501376547.86,58423,19.75,74460.8,7.37,-22.41,-22.73,0,*77
1501376549.12,58424,19.75,74462.8,7.37,-22.47,-22.77,0,*72
1501376550.32,58425,19.75,74462.5,7.37,-22.93,-22.87,0,*75
1501376551.55,58426,19.75,74464.5,7.39,-22.83,-22.97,0,*78
1501376552.78,58427,19.75,74466.3,7.35,-22.57,-22.87,0,*7D
1501376554.0,58428,19.75,74466.5,7.35,-22.63,-22.93,0,*70
1501376555.26,58429,19.75,74464.8,7.35,-22.77,-22.93,0,*74
1501376556.51,58430,19.75,74462.3,7.37,-23.19,-23.33,0,*7C
1501376557.75,58431,19.75,74462.8,7.37,-23.03,-23.09,0,*7F
1501376559.02,58432,19.75,74466.3,7.35,-23.19,-23.33,0,*7C
1501376560.28,58433,19.75,74464.3,7.35,-23.09,-23.33,0,*7C
1501376561.55,58434,19.75,74462.5,7.35,-23.19,-23.33,0,*7A
1501376562.8,58435,19.75,74462.3,7.35,-23.19,-23.39,0,*71
1501376564.05,58436,19.75,74464.8,7.33,-23.19,-23.29,0,*75
1501376565.27,58437,19.75,74466.5,7.33,-23.13,-23.29,0,*7E
1501376566.5,58438,19.75,74462.3,7.33,-23.13,-23.29,0,*71
1501376567.78,58439,19.75,74464.3,7.35,-23.19,-23.23,0,*76
1501376569.0,58440,19.75,74470.3,7.33,-23.23,-23.39,0,*7C
1501376570.22,58441,19.75,74468.8,7.33,-23.23,-23.39,0,*7D
1501376571.43,58442,19.75,74466.0,7.33,-22.97,-23.09,0,*73
1501376572.64,58443,19.75,74470.5,7.33,-22.93,-22.97,0,*70
1501376573.92,58444,19.75,74470.8,7.35,-23.03,-23.29,0,*7D
1501376575.15,58445,19.75,74466.8,7.33,-23.13,-23.23,0,*71
1501376576.37,58446,19.75,74468.8,7.33,-23.23,-23.39,0,*7A
1501376577.65,58447,19.75,74468.8,7.31,-23.03,-23.03,0,*72
1501376578.87,58448,19.75,74468.8,7.31,-22.57,-22.83,0,*74
1501376580.1,58449,19.75,74470.8,7.31,-22.37,-22.53,0,*7E
1501376581.33,58450,19.75,74468.5,7.33,-22.47,-22.53,0,*73
1501376582.56,58451,19.75,74470.8,7.33,-22.63,-22.77,0,*72
1501376583.78,58452,19.75,74470.5,7.33,-22.63,-22.77,0,*71
1501376585.01,58453,19.75,74468.0,7.33,-22.63,-22.77,0,*70
1501376586.24,58454,19.75,74470.0,7.33,-22.41,-22.47,0,*74
1501376587.47,58455,19.69,74466.5,7.33,-22.27,-22.47,0,*75
1501376588.66,58456,19.75,74468.3,7.33,-22.27,-22.41,0,*70
1501376589.89,58457,19.75,74470.3,7.33,-22.27,-22.31,0,*76
1501376591.09,58458,19.75,74468.8,7.33,-22.27,-22.41,0,*7E
1501376592.31,58459,19.75,74474.0,7.35,-22.27,-22.41,0,*79
1501376593.57,58460,19.75,74470.5,7.33,-22.31,-22.47,0,*74
1501376594.8,58461,19.75,74472.5,7.35,-21.77,-21.93,0,*78
1501376596.02,58462,19.75,74468.3,7.35,-22.27,-22.27,0,*71
1501376597.25,58463,19.75,74468.0,7.35,-21.93,-22.07,0,*7E
1501376598.45,58464,19.75,74466.3,7.37,-22.27,-22.41,0,*75
1501376599.64,58465,19.69,74466.0,7.37,-22.27,-22.37,0,*75
1501376600.84,58466,19.75,74466.8,7.37,-22.27,-22.41,0,*77
1501376602.04,58467,19.75,74464.5,7.37,-22.37,-22.57,0,*70
1501376603.25,58468,19.75,74466.0,7.37,-22.41,-22.57,0,*7E
1501376604.47,58469,19.75,74468.0,7.37,-22.41,-22.73,0,*79
1501376605.72,58470,19.75,74470.3,7.39,-22.21,-22.37,0,*79
1501376606.92,58471,19.75,74470.8,7.37,-22.37,-22.57,0,*77
1501376608.17,58472,19.75,74468.0,7.39,-22.31,-22.57,0,*7C
1501376609.42,58473,19.75,74470.5,7.39,-22.31,-22.37,0,*7B
1501376610.66,58474,19.69,74468.8,7.39,-22.07,-22.21,0,*7E
1501376611.91,58475,19.75,74468.8,7.39,-22.21,-22.37,0,*7C
1501376613.15,58476,19.75,74470.8,7.37,-22.27,-22.47,0,*70
1501376614.38,58477,19.75,74470.5,7.37,-22.37,-22.47,0,*70
1501376615.63,58478,19.75,74468.5,7.39,-22.31,-22.41,0,*71
1501376616.88,58479,19.75,74470.0,7.39,-22.31,-22.53,0,*73
1501376618.13,58480,19.75,74470.3,7.39,-22.31,-22.57,0,*71
1501376619.36,58481,19.75,74470.0,7.39,-22.37,-22.67,0,*75
1501376620.58,58482,19.75,74468.5,7.39,-22.37,-22.57,0,*75
1501376621.78,58483,19.69,74468.8,7.41,-22.37,-22.53,0,*7F
1501376623.01,58484,19.69,74470.3,7.41,-22.11,-22.17,0,*7C
1501376624.23,58485,19.75,74470.8,7.41,-22.03,-22.17,0,*7E
1501376625.45,58486,19.75,74470.0,7.41,-22.17,-22.37,0,*7A
1501376626.68,58487,19.75,74470.5,7.43,-22.27,-22.53,0,*78
1501376627.9,58488,19.75,74464.5,7.41,-22.31,-22.63,0,*71
1501376629.12,58489,19.75,74468.0,7.41,-22.63,-22.77,0,*72
1501376630.35,58490,19.75,74468.0,7.41,-22.77,-22.93,0,*75
1501376631.54,58491,19.69,74468.8,7.41,-22.67,-22.83,0,*74
1501376632.76,58492,19.75,74470.3,7.43,-22.37,-22.67,0,*7A
1501376633.96,58493,19.75,74468.8,7.41,-22.37,-22.63,0,*7D
1501376635.22,58494,19.69,74464.0,7.43,-22.27,-22.47,0,*7F
1501376636.47,58495,19.75,74468.3,7.41,-22.47,-22.77,0,*79
1501376637.66,58496,19.69,74464.3,7.41,-22.67,-22.93,0,*72
1501376638.86,58497,19.75,74464.5,7.41,-22.63,-22.83,0,*76
1501376640.08,58498,19.75,74466.0,7.43,-22.63,-22.83,0,*7B
1501376641.27,58499,19.69,74460.8,7.41,-22.67,-22.93,0,*7D
1501376642.47,58500,19.75,74464.3,7.41,-22.93,-23.13,0,*7E
1501376643.73,58501,19.69,74460.0,7.43,-22.97,-23.23,0,*7A
1501376644.95,58502,19.69,74462.3,7.41,-23.09,-23.29,0,*77
1501376646.19,58503,19.75,74464.8,7.43,-23.13,-23.33,0,*74
1501376647.44,58504,19.75,74466.3,7.41,-23.23,-23.33,0,*72
1501376648.66,58505,19.75,74464.8,7.41,-23.13,-23.29,0,*7B
1501376649.91,58506,19.75,74460.8,7.39,-23.19,-23.39,0,*7C
1501376651.15,58507,19.75,74464.0,7.39,-23.13,-23.33,0,*7D
1501376652.41,58508,19.75,74464.8,7.39,-23.13,-23.19,0,*7A
1501376653.64,58509,19.75,74466.3,7.37,-23.19,-23.39,0,*7D
1501376654.86,58510,19.75,74466.8,7.37,-23.33,-23.39,0,*7D
1501376656.09,58511,19.75,74466.0,7.37,-23.23,-23.43,0,*70
1501376657.32,58512,19.75,74470.3,7.37,-23.19,-23.43,0,*7A
1501376658.6,58513,19.75,74466.0,7.39,-23.03,-23.19,0,*71
1501376659.86,58514,19.75,74470.8,7.37,-23.19,-23.33,0,*7B
1501376661.09,58515,19.75,74470.0,7.37,-23.09,-23.23,0,*7A
1501376662.29,58516,19.75,74470.3,7.37,-22.87,-22.97,0,*70
1501376663.57,58517,19.75,74472.5,7.35,-23.19,-23.33,0,*7A
1501376664.82,58518,19.75,74470.3,7.39,-23.13,-23.29,0,*78
1501376666.05,58519,19.75,74470.8,7.37,-23.33,-23.43,0,*79
1501376667.31,58520,19.75,74468.8,7.37,-23.19,-23.19,0,*74
1501376668.56,58521,19.69,74468.5,7.35,-23.03,-23.09,0,*7D
1501376669.82,58522,19.75,74468.0,7.35,-22.93,-23.03,0,*7C
1501376671.09,58523,19.75,74468.5,7.35,-23.03,-23.03,0,*75
1501376672.33,58524,19.75,74468.3,7.35,-23.09,-23.09,0,*72
1501376673.61,58525,19.75,74468.5,7.35,-23.03,-23.19,0,*78
1501376674.89,58526,19.75,74468.5,7.35,-23.19,-23.23,0,*79
1501376676.14,58527,19.75,74468.8,7.35,-23.33,-23.43,0,*76
1501376677.39,58528,19.75,74468.8,7.35,-23.23,-23.39,0,*75
1501376678.59,58529,19.69,74466.0,7.33,-23.09,-23.13,0,*72
1501376679.8,58530,19.75,74472.3,7.33,-23.09,-23.13,0,*7A
1501376681.03,58531,19.75,74468.5,7.33,-23.03,-22.97,0,*7C
1501376682.26,58532,19.75,74470.5,7.35,-22.87,-22.93,0,*70
1501376683.51,58533,19.75,74472.0,7.35,-22.93,-23.03,0,*7C
1501376684.72,58534,19.75,74468.8,7.33,-22.97,-23.09,0,*73
1501376685.98,58535,19.75,74472.3,7.35,-23.09,-23.19,0,*73
1501376687.23,58536,19.75,74472.0,7.35,-22.77,-22.87,0,*7E
1501376688.48,58537,19.75,74470.3,7.35,-22.73,-22.87,0,*7B
1501376689.7,58538,19.75,74468.5,7.33,-22.73,-22.83,0,*76
1501376690.93,58539,19.69,74470.5,7.35,-22.41,-22.57,0,*79
1501376692.15,58540,19.75,74470.3,7.35,-22.37,-22.37,0,*70
1501376693.38,58541,19.75,74470.3,7.35,-22.37,-22.57,0,*77
1501376694.6,58542,19.75,74470.3,7.35,-22.37,-22.41,0,*73
1501376695.8,58543,19.75,74468.5,7.37,-22.27,-22.37,0,*70
1501376697.02,58544,19.75,74470.0,7.35,-22.37,-22.37,0,*74
1501376698.24,58545,19.75,74470.5,7.35,-22.27,-22.41,0,*75
1501376699.49,58546,19.75,74470.8,7.39,-22.07,-22.21,0,*7E
1501376700.71,58547,19.69,74468.5,7.37,-22.21,-22.37,0,*72
1501376701.95,58548,19.75,74472.8,7.37,-22.37,-22.47,0,*7D
1501376703.15,58549,19.75,74472.0,7.37,-22.27,-22.37,0,*7A
1501376704.37,58550,19.69,74470.3,7.37,-22.21,-22.37,0,*74
1501376705.57,58551,19.75,74468.8,7.37,-22.27,-22.37,0,*73
1501376706.82,58552,19.69,74470.3,7.39,-22.31,-22.41,0,*78
1501376708.04,58553,19.75,74472.0,7.39,-22.37,-22.57,0,*78
1501376709.29,58554,19.75,74472.8,7.39,-22.21,-22.37,0,*7E
1501376710.57,58555,19.75,74468.8,7.39,-22.21,-22.21,0,*78
1501376711.8,58556,19.75,74470.8,7.37,-22.27,-22.31,0,*72
1501376713.02,58557,19.75,74470.3,7.37,-22.21,-22.41,0,*72
1501376714.27,58558,19.69,74468.0,7.39,-22.21,-22.37,0,*72
1501376715.46,58559,19.75,74470.0,7.41,-22.11,-22.27,0,*7E
1501376716.72,58560,19.75,74468.0,7.41,-22.17,-22.31,0,*75
1501376717.95,58561,19.75,74474.3,7.41,-22.27,-22.47,0,*76
1501376719.14,58562,19.75,74470.3,7.41,-22.27,-22.37,0,*72
1501376720.36,58563,19.75,74468.8,7.41,-22.31,-22.53,0,*76
1501376721.59,58564,19.75,74466.8,7.41,-22.27,-22.47,0,*73
1501376722.84,58565,19.75,74470.8,7.43,-22.27,-22.47,0,*70
1501376724.03,58566,19.75,74468.0,7.41,-22.27,-22.37,0,*76
1501376725.29,58567,19.69,74466.8,7.43,-22.27,-22.47,0,*72
1501376726.51,58568,19.75,74470.0,7.41,-22.27,-22.47,0,*7F
1501376727.73,58569,19.75,74468.8,7.43,-22.27,-22.37,0,*7B
1501376728.98,58570,19.75,74468.8,7.43,-22.27,-22.47,0,*74
1501376730.24,58571,19.75,74470.3,7.43,-22.27,-22.47,0,*75
1501376731.46,58572,19.75,74470.0,7.43,-22.27,-22.53,0,*73
1501376732.65,58573,19.75,74470.3,7.41,-22.11,-22.27,0,*76
1501376733.87,58574,19.75,74470.0,7.43,-22.11,-22.27,0,*73
1501376735.16,58575,19.75,74470.5,7.43,-22.17,-22.31,0,*73
1501376736.41,58576,19.75,74470.5,7.43,-22.17,-22.27,0,*77
1501376737.63,58577,19.75,74466.8,7.43,-22.27,-22.37,0,*74
1501376738.85,58578,19.75,74468.5,7.47,-22.41,-22.63,0,*7E
1501376740.07,58579,19.69,74464.3,7.47,-22.41,-22.57,0,*78
1501376741.34,58580,19.75,74468.0,7.47,-22.47,-22.73,0,*7E
1501376742.62,58581,19.75,74468.0,7.47,-22.47,-22.73,0,*7F
1501376743.87,58582,19.75,74468.5,7.47,-22.77,-22.87,0,*74
1501376745.11,58583,19.69,74466.8,7.47,-22.73,-22.87,0,*71
1501376746.37,58584,19.69,74466.8,7.47,-22.77,-22.93,0,*77
1501376747.61,58585,19.75,74468.5,7.47,-22.87,-23.03,0,*71
1501376748.84,58586,19.75,74466.3,7.43,-22.83,-22.93,0,*7A
1501376750.04,58587,19.75,74468.8,7.41,-22.97,-23.09,0,*7E
1501376751.26,58588,19.75,74468.0,7.41,-23.09,-23.29,0,*75
1501376752.52,58589,19.75,74466.5,7.43,-23.09,-23.23,0,*7C
1501376753.74,58590,19.75,74466.0,7.43,-22.37,-22.53,0,*7E
1501376754.93,58591,19.75,74468.0,7.41,-22.27,-22.37,0,*7E
1501376756.15,58592,19.75,74468.8,7.43,-22.11,-22.27,0,*7B
1501376757.43,58593,19.69,74464.0,7.43,-22.17,-22.31,0,*7B
1501376758.69,58594,19.75,74466.3,7.43,-22.27,-22.47,0,*7E
1501376759.96,58595,19.75,74464.8,7.47,-22.21,-22.31,0,*7C
1501376761.24,58596,19.75,74464.0,7.47,-22.21,-22.31,0,*7F
1501376762.46,58597,19.75,74468.0,7.47,-22.41,-22.63,0,*7F
1501376763.73,58598,19.75,74466.3,7.47,-22.47,-22.73,0,*77
1501376764.95,58599,19.75,74466.5,7.47,-22.41,-22.57,0,*76
1501376766.23,58600,19.75,74466.8,7.47,-22.73,-22.77,0,*76
1501376767.47,58601,19.75,74464.3,7.49,-22.63,-22.77,0,*78
1501376768.72,58602,19.75,74466.0,7.47,-22.87,-23.03,0,*7D
1501376769.98,58603,19.75,74464.8,7.47,-23.09,-23.23,0,*79
1501376771.25,58604,19.75,74468.0,7.47,-23.19,-23.29,0,*75
1501376772.5,58605,19.75,74466.0,7.47,-23.19,-23.43,0,*78
1501376773.76,58606,19.75,74470.0,7.47,-23.09,-23.23,0,*7C
1501376775.03,58607,19.75,74466.8,7.47,-23.03,-23.19,0,*7E
1501376776.28,58608,19.75,74468.3,7.43,-23.13,-23.29,0,*77
1501376777.54,58609,19.75,74470.8,7.43,-23.23,-23.33,0,*7E
1501376778.77,58610,19.75,74468.3,7.41,-22.77,-22.83,0,*7E
1501376779.96,58611,19.69,74466.8,7.41,-22.83,-22.83,0,*74
1501376781.19,58612,19.75,74468.8,7.43,-22.93,-22.93,0,*75
1501376782.39,58613,19.75,74468.0,7.41,-22.83,-22.83,0,*76
1501376783.58,58614,19.75,74468.8,7.41,-22.63,-22.83,0,*7F
1501376784.77,58615,19.75,74470.5,7.41,-22.63,-22.83,0,*7E
1501376785.99,58616,19.75,74470.0,7.43,-22.67,-22.83,0,*7B
1501376787.24,58617,19.75,74470.8,7.43,-22.63,-22.77,0,*75
1501376788.46,58618,19.69,74464.8,7.41,-22.63,-22.77,0,*78
1501376789.67,58619,19.75,74466.3,7.41,-22.63,-22.77,0,*79
1501376790.89,58620,19.75,74464.5,7.41,-22.63,-22.77,0,*73
1501376792.11,58621,19.75,74470.3,7.41,-22.63,-22.77,0,*72
1501376793.33,58622,19.75,74464.0,7.43,-22.63,-22.67,0,*72
1501376794.58,58623,19.75,74464.8,7.43,-22.53,-22.77,0,*71
1501376795.81,58624,19.75,74470.3,7.43,-22.53,-22.67,0,*77
1501376797.05,58625,19.75,74466.3,7.43,-22.63,-22.77,0,*74
1501376798.3,58626,19.75,74466.8,7.41,-22.77,-22.77,0,*70
1501376799.55,58627,19.69,74466.3,7.43,-22.77,-22.83,0,*78
1501376800.78,58628,19.69,74466.8,7.43,-22.83,-22.83,0,*7C
1501376802.02,58629,19.75,74468.0,7.43,-22.63,-22.77,0,*78
1501376803.25,58630,19.75,74470.5,7.43,-22.37,-22.63,0,*74
1501376804.47,58631,19.75,74468.0,7.41,-22.47,-22.53,0,*73
1501376805.72,58632,19.75,74468.5,7.43,-22.47,-22.63,0,*71
1501376806.97,58633,19.75,74468.8,7.47,-22.63,-22.77,0,*77
1501376808.21,58634,19.75,74470.5,7.47,-22.73,-22.87,0,*7E
1501376809.44,58635,19.75,74470.3,7.43,-22.53,-22.83,0,*7D
1501376810.69,58636,19.75,74472.0,7.43,-22.27,-22.31,0,*74
1501376811.94,58637,19.75,74470.3,7.43,-22.27,-22.47,0,*74
1501376813.19,58638,19.75,74468.0,7.43,-22.63,-22.77,0,*78
1501376814.43,58639,19.75,74468.5,7.43,-22.31,-22.53,0,*78
1501376815.72,58640,19.69,74466.8,7.49,-22.21,-22.47,0,*78
1501376816.94,58641,19.75,74464.3,7.47,-22.11,-22.27,0,*72
1501376818.16,58642,19.75,74464.8,7.49,-22.27,-22.41,0,*7A
1501376819.41,58643,19.75,74464.8,7.47,-22.57,-22.73,0,*73
1501376820.68,58644,19.69,74460.0,7.47,-22.47,-22.73,0,*75
1501376821.97,58645,19.75,74460.0,7.49,-22.77,-23.03,0,*7F
1501376823.24,58646,19.75,74462.0,7.49,-23.03,-23.29,0,*76
1501376824.5,58647,19.69,74458.8,7.47,-23.09,-23.23,0,*79
1501376825.73,58648,19.75,74460.3,7.47,-23.09,-23.43,0,*70
1501376826.97,58649,19.75,74460.0,7.47,-23.09,-23.29,0,*7D
1501376828.24,58650,19.75,74464.0,7.47,-23.19,-23.29,0,*74
1501376829.5,58651,19.69,74462.0,7.47,-23.09,-23.19,0,*77
1501376830.75,58652,19.75,74462.3,7.47,-22.93,-23.03,0,*7D
1501376832.02,58653,19.75,74462.5,7.47,-23.03,-23.29,0,*7C
1501376833.26,58654,19.75,74466.0,7.43,-23.23,-23.59,0,*7A
1501376834.51,58655,19.75,74464.8,7.41,-23.29,-23.49,0,*72
1501376835.77,58656,19.75,74466.8,7.43,-23.23,-23.29,0,*7F
1501376836.99,58657,19.75,74466.0,7.41,-23.13,-23.29,0,*7F
1501376838.22,58658,19.75,74464.5,7.41,-23.13,-23.23,0,*7A
1501376839.46,58659,19.69,74466.3,7.41,-23.23,-23.49,0,*74
1501376840.71,58660,19.75,74466.3,7.41,-23.29,-23.49,0,*74
1501376841.99,58661,19.75,74466.8,7.39,-23.19,-23.19,0,*7C
1501376843.24,58662,19.75,74464.3,7.39,-22.73,-22.87,0,*74
1501376844.49,58663,19.75,74464.5,7.39,-22.73,-22.97,0,*74
1501376845.71,58664,19.75,74468.8,7.39,-22.83,-22.97,0,*7C
1501376846.94,58665,19.75,74466.3,7.39,-22.67,-22.83,0,*72
1501376848.14,58666,19.75,74468.0,7.41,-22.53,-22.83,0,*79
1501376849.34,58667,19.69,74466.0,7.41,-22.53,-22.67,0,*72
1501376850.54,58668,19.75,74466.8,7.41,-22.37,-22.53,0,*78
1501376851.78,58669,19.75,74466.3,7.43,-22.27,-22.31,0,*7E
1501376853.0,58670,19.75,74464.5,7.41,-22.31,-22.37,0,*75
1501376854.25,58671,19.75,74466.5,7.43,-22.31,-22.37,0,*76
1501376855.5,58672,19.75,74466.8,7.41,-22.31,-22.47,0,*70
1501376856.72,58673,19.69,74464.3,7.43,-22.27,-22.37,0,*73
1501376857.97,58674,19.75,74464.8,7.43,-22.27,-22.31,0,*72
1501376859.22,58675,19.75,74466.0,7.43,-22.27,-22.31,0,*73
1501376860.47,58676,19.69,74466.0,7.43,-22.17,-22.27,0,*74
1501376861.69,58677,19.75,74468.8,7.43,-22.03,-22.11,0,*75
1501376862.91,58678,19.69,74464.8,7.47,-22.11,-22.27,0,*78
1501376864.13,58679,19.75,74468.0,7.47,-22.11,-22.27,0,*79
1501376865.41,58680,19.75,74468.0,7.49,-22.21,-22.31,0,*75
1501376866.69,58681,19.75,74468.8,7.47,-22.21,-22.31,0,*7A
1501376867.91,58682,19.75,74468.0,7.49,-22.27,-22.41,0,*76
1501376869.19,58683,19.75,74470.0,7.49,-22.21,-22.31,0,*76
1501376870.44,58684,19.75,74466.3,7.49,-22.21,-22.27,0,*76
1501376871.7,58685,19.75,74468.0,7.49,-22.21,-22.27,0,*77
1501376872.98,58686,19.75,74468.0,7.49,-22.21,-22.31,0,*73
1501376874.2,58687,19.75,74468.0,7.49,-22.07,-22.27,0,*71
1501376875.45,58688,19.75,74468.3,7.49,-22.31,-22.41,0,*7B
1501376876.7,58689,19.75,74468.8,7.49,-22.31,-22.57,0,*7D
1501376877.95,58690,19.75,74470.0,7.47,-22.57,-22.73,0,*7D
1501376879.15,58691,19.75,74466.5,7.51,-22.37,-22.53,0,*7F
1501376880.34,58692,19.69,74464.8,7.51,-22.27,-22.41,0,*7E
1501376881.54,58693,19.75,74464.8,7.51,-22.37,-22.41,0,*7E
1501376882.8,58694,19.75,74464.5,7.53,-22.37,-22.31,0,*7C
1501376884.0,58695,19.69,74462.5,7.51,-22.27,-22.53,0,*7A
1501376885.26,58696,19.69,74464.3,7.53,-22.21,-22.37,0,*7F
1501376886.45,58697,19.75,74468.3,7.51,-22.37,-22.41,0,*7A
1501376887.7,58698,19.75,74466.0,7.53,-22.31,-22.37,0,*70
1501376888.95,58699,19.75,74468.8,7.53,-22.31,-22.41,0,*70
1501376890.21,58700,19.75,74468.3,7.53,-22.31,-22.37,0,*70
1501376891.46,58701,19.75,74464.3,7.53,-22.21,-22.37,0,*70
1501376892.71,58702,19.75,74466.0,7.53,-22.11,-22.21,0,*77
1501376893.95,58703,19.69,74464.5,7.53,-22.37,-22.53,0,*77
1501376895.18,58704,19.69,74462.0,7.53,-22.37,-22.53,0,*70
1501376896.38,58705,19.69,74464.0,7.51,-22.41,-22.57,0,*76
1501376897.64,58706,19.69,74462.8,7.53,-22.47,-22.67,0,*72
1501376898.87,58707,19.75,74460.5,7.53,-22.53,-22.67,0,*76
1501376900.11,58708,19.75,74460.3,7.53,-22.37,-22.63,0,*7F
1501376901.34,58709,19.69,74462.0,7.53,-22.67,-22.83,0,*75
1501376902.56,58710,19.69,74462.0,7.53,-22.63,-22.67,0,*73